| time (UTC) | temp C | wind direction | speed KPH | gust KPH | rain 1hr cm | rain 24hr cm | rain mn cm | humidity % | barometer mb |
| 20260503190053 | 10 | 269 | 4.8 | 22.5 | 0.00 | 0.13 | 0.00 | 55 | 1004.2 |
| 20260503184554 | 10 | 285 | 9.7 | 24.1 | 0.00 | 0.13 | 0.00 | 53 | 1004.1 |
| 20260503183109 | 11 | 303 | 6.4 | 24.1 | 0.00 | 0.13 | 0.00 | 52 | 1003.9 |
| 20260503181618 | 10 | 272 | 4.8 | 32.2 | 0.00 | 0.13 | 0.00 | 54 | 1003.9 |
| 20260503180051 | 10 | 302 | 8.0 | 20.9 | 0.00 | 0.13 | 0.00 | 59 | 1004.2 |
| 20260503174551 | 9 | 304 | 6.4 | 19.3 | 0.00 | 0.13 | 0.00 | 60 | 1004.1 |
| 20260503173056 | 9 | 293 | 8.0 | 22.5 | 0.00 | 0.13 | 0.00 | 62 | 1004.3 |
| 20260503171555 | 9 | 185 | 9.7 | 22.5 | 0.00 | 0.13 | 0.00 | 62 | 1004.3 |
| 20260503100106 | 5 | 286 | 0.0 | 9.7 | 0.00 | 0.28 | 0.00 | 91 | 1006.4 |
| 20260503081552 | 5 | 0 | 0.0 | 3.2 | 0.00 | 0.28 | 0.00 | 91 | 1007.8 |
| 20260503071607 | 5 | 0 | 0.0 | 3.2 | 0.00 | 0.28 | 0.00 | 91 | 1008.0 |
| 20260503070118 | 5 | 315 | 1.6 | 4.8 | 0.00 | 0.28 | 0.00 | 91 | 1008.1 |
| 20260503060114 | 6 | 0 | 0.0 | 4.8 | 0.00 | 0.28 | 0.00 | 91 | 1008.7 |
| 20260503054549 | 6 | 292 | 0.0 | 6.4 | 0.00 | 0.28 | 0.00 | 91 | 1008.7 |
| 20260503053050 | 6 | 0 | 0.0 | 4.8 | 0.00 | 0.28 | 0.00 | 91 | 1009.0 |
| 20260503051552 | 6 | 0 | 0.0 | 4.8 | 0.00 | 0.28 | 0.00 | 91 | 1009.3 |
| 20260503050055 | 6 | 0 | 1.6 | 8.0 | 0.00 | 0.28 | 0.00 | 91 | 1009.4 |
| 20260503044550 | 6 | 298 | 1.6 | 9.7 | 0.00 | 0.28 | 0.00 | 91 | 1009.5 |
| 20260503043047 | 6 | 295 | 0.0 | 3.2 | 0.00 | 0.28 | 0.00 | 91 | 1009.6 |
| 20260503041557 | 6 | 23 | 1.6 | 8.0 | 0.00 | 0.28 | 0.00 | 91 | 1009.7 |
| 20260503040051 | 6 | 61 | 0.0 | 6.4 | 0.00 | 0.28 | 0.00 | 91 | 1009.8 |
| 20260503034606 | 6 | 0 | 0.0 | 4.8 | 0.00 | 0.28 | 0.28 | 90 | 1010.0 |
| 20260503033057 | 6 | 0 | 0.0 | 4.8 | 0.00 | 0.28 | 0.28 | 90 | 1010.0 |
| 20260503031556 | 6 | 0 | 1.6 | 4.8 | 0.00 | 0.28 | 0.28 | 90 | 1010.3 |
| 20260503030057 | 6 | 282 | 0.0 | 4.8 | 0.00 | 0.28 | 0.28 | 90 | 1010.3 |
| 20260503024550 | 6 | 0 | 0.0 | 4.8 | 0.00 | 0.28 | 0.28 | 90 | 1010.5 |
| 20260503023057 | 6 | 0 | 0.0 | 4.8 | 0.00 | 0.28 | 0.28 | 90 | 1010.7 |
| 20260503021555 | 6 | 0 | 1.6 | 9.7 | 0.03 | 0.28 | 0.28 | 89 | 1010.8 |
| 20260503020050 | 6 | 28 | 0.0 | 6.4 | 0.03 | 0.28 | 0.28 | 90 | 1010.6 |
| 20260503014556 | 7 | 30 | 1.6 | 6.4 | 0.05 | 0.28 | 0.28 | 89 | 1010.9 |
| 20260503013059 | 7 | 0 | 1.6 | 4.8 | 0.05 | 0.25 | 0.25 | 89 | 1011.0 |
| 20260503011606 | 7 | 28 | 0.0 | 3.2 | 0.08 | 0.25 | 0.25 | 89 | 1010.9 |
| 20260503010119 | 7 | 288 | 0.0 | 3.2 | 0.10 | 0.25 | 0.25 | 89 | 1011.1 |
| 20260503004616 | 7 | 0 | 0.0 | 4.8 | 0.08 | 0.23 | 0.23 | 89 | 1011.2 |
| 20260503003052 | 7 | 0 | 0.0 | 1.6 | 0.05 | 0.20 | 0.20 | 88 | 1011.0 |
| 20260503001551 | 7 | 0 | 0.0 | 3.2 | 0.03 | 0.18 | 0.18 | 88 | 1010.8 |
| 20260503000056 | 7 | 0 | 0.0 | 4.8 | 0.00 | 0.15 | 0.15 | 88 | 1010.7 |
| 20260502234551 | 7 | 5 | 0.0 | 6.4 | 0.00 | 0.15 | 0.15 | 87 | 1010.6 |
| 20260502233052 | 7 | 355 | 0.0 | 3.2 | 0.00 | 0.15 | 0.15 | 87 | 1010.6 |
| 20260502231552 | 7 | 0 | 0.0 | 4.8 | 0.00 | 0.15 | 0.15 | 87 | 1010.6 |
| 20260502230054 | 8 | 0 | 0.0 | 3.2 | 0.00 | 0.15 | 0.15 | 87 | 1010.8 |
| 20260502224552 | 8 | 0 | 0.0 | 6.4 | 0.00 | 0.15 | 0.15 | 86 | 1010.6 |
| 20260502223053 | 8 | 0 | 1.6 | 4.8 | 0.00 | 0.15 | 0.15 | 86 | 1010.7 |
| 20260502221553 | 8 | 24 | 1.6 | 6.4 | 0.00 | 0.15 | 0.15 | 85 | 1010.6 |
| 20260502220053 | 8 | 45 | 0.0 | 3.2 | 0.00 | 0.15 | 0.15 | 84 | 1010.6 |
| 20260502214608 | 8 | 0 | 0.0 | 1.6 | 0.00 | 0.15 | 0.15 | 81 | 1010.8 |
| 20260502213054 | 9 | 0 | 0.0 | 3.2 | 0.00 | 0.15 | 0.15 | 79 | 1010.8 |
| 20260502211602 | 9 | 0 | 0.0 | 0.0 | 0.00 | 0.15 | 0.15 | 78 | 1010.8 |
| 20260502210053 | 9 | 0 | 0.0 | 3.2 | 0.00 | 0.15 | 0.15 | 78 | 1010.5 |
| 20260502204552 | 9 | 0 | 0.0 | 0.0 | 0.00 | 0.15 | 0.15 | 78 | 1010.7 |
| 20260502203059 | 9 | 0 | 0.0 | 3.2 | 0.00 | 0.15 | 0.15 | 78 | 1010.7 |
| 20260502201605 | 10 | 84 | 1.6 | 4.8 | 0.00 | 0.15 | 0.15 | 77 | 1010.8 |
| 20260502200051 | 10 | 71 | 0.0 | 3.2 | 0.00 | 0.15 | 0.15 | 77 | 1010.8 |
| 20260502194558 | 10 | 0 | 0.0 | 6.4 | 0.00 | 0.15 | 0.15 | 76 | 1010.7 |
| 20260502193051 | 10 | 0 | 0.0 | 4.8 | 0.00 | 0.15 | 0.15 | 78 | 1010.9 |
| 20260502191551 | 10 | 26 | 3.2 | 4.8 | 0.00 | 0.15 | 0.15 | 79 | 1010.9 |